Location: Dal�� Lhota
(48.7500°N, 14.0167°E)
Time: 09:25:59
(UTC+00:00)

Explorer 7 - Pass Details

Date: 06 August 2021
Orbit: 484 x 676 km, 50.3° (Epoch: 21 September)

Event Time Altitude Azimuth Distance (km) Brightness Sun altitude
Rises 08:58:30 0° 280° (W) 2,679 10.0 48.2°
Reaches altitude 10° 09:01:38 10° 254° (WSW) 1,827 9.4 48.6°
Maximum altitude 09:03:44 14° 224° (SW) 1,631 9.4 48.9°
Drops below altitude 10° 09:05:52 10° 194° (SSW) 1,882 9.9 49.1°
Sets 09:09:12 0° 168° (SSE) 2,827 10.9 49.5°
